EW4282 Weather Reports


time (UTC)temp
F
wind
direction
speed
knots
gust
knots
rain 1hr
in
rain 24hr
in
rain mn
in
humidity
%
barometer
mb
20260504174531 76 169 4.3 8.7 0.00 0.00 0.00 53 1014.5
20260504173029 76 238 3.5 9.6 0.00 0.00 0.00 52 1014.7
20260504171524 75 213 4.3 8.7 0.00 0.00 0.00 50 1015.0
20260504150103 70 245 3.5 9.6 0.00 0.00 0.00 61 1016.4
20260504081548 45 161 0.0 0.0 0.00 0.00 0.00 93 1016.2
20260504044530 47 161 0.0 0.0 0.00 0.00 0.00 89 1017.4
20260504043026 47 161 0.0 0.0 0.00 0.00 0.00 89 1017.3
20260504041524 47 161 0.0 0.0 0.00 0.00 0.00 89 1017.5
20260504040022 48 161 0.0 0.0 0.00 0.00 0.00 88 1017.3
20260504034529 48 161 0.0 0.0 0.00 0.00 0.00 85 1017.5
20260504033021 48 161 0.0 0.0 0.00 0.00 0.00 84 1017.5
20260504031521 48 161 0.0 0.0 0.00 0.00 0.00 85 1017.8
20260504030037 48 161 0.0 0.0 0.00 0.00 0.00 86 1017.8
20260504024520 48 161 0.0 0.9 0.00 0.00 0.00 87 1018.0
20260504023020 48 161 0.0 0.0 0.00 0.00 0.00 87 1018.0
20260504021518 49 161 0.0 0.0 0.00 0.00 0.00 87 1017.8
20260504020021 50 161 0.0 0.0 0.00 0.00 0.00 86 1017.7
20260504014532 50 161 0.0 0.0 0.00 0.00 0.00 84 1017.5
20260504013017 51 161 0.0 0.0 0.00 0.00 0.00 83 1017.3
20260504011517 52 161 0.0 0.9 0.00 0.00 0.00 79 1017.1
20260504010020 53 161 0.0 0.0 0.00 0.00 0.00 77 1017.1
20260504004515 54 161 0.0 0.0 0.00 0.00 0.00 75 1016.8
20260504003025 56 161 0.0 0.0 0.00 0.00 0.00 71 1016.8
20260504001512 57 205 0.0 0.9 0.00 0.00 0.00 68 1016.9
20260504000011 59 217 0.0 0.9 0.00 0.00 0.00 64 1017.0
20260503234522 60 217 0.0 1.7 0.00 0.00 0.00 57 1017.2
20260503233006 63 217 0.0 1.7 0.00 0.00 0.00 53 1017.3
20260503231506 64 217 0.9 2.6 0.00 0.00 0.00 50 1017.5
20260503230005 65 219 1.7 4.3 0.00 0.00 0.00 43 1017.6
20260503224503 66 184 1.7 6.1 0.00 0.00 0.00 42 1017.7
20260503223003 67 281 1.7 4.3 0.00 0.00 0.00 41 1017.8
20260503221503 67 316 0.9 6.1 0.00 0.00 0.00 42 1017.9
20260503220101 67 205 0.0 7.0 0.00 0.00 0.00 44 1017.9
20260503214600 67 212 2.6 7.0 0.00 0.00 0.00 43 1018.1
20260503213107 67 194 2.6 7.0 0.00 0.00 0.00 43 1018.2
20260503211553 67 210 1.7 7.8 0.00 0.00 0.00 42 1018.5
20260503210059 67 249 0.9 7.0 0.00 0.00 0.00 43 1018.6
20260503204552 67 337 1.7 7.8 0.00 0.00 0.00 43 1018.8
20260503203044 66 207 3.5 7.0 0.00 0.00 0.00 45 1019.0
20260503201541 66 216 3.5 7.0 0.00 0.00 0.00 44 1019.4
20260503200039 66 221 4.3 7.0 0.00 0.00 0.00 50 1019.6
20260503194540 66 214 2.6 7.0 0.00 0.00 0.00 48 1020.0
20260503193046 65 251 2.6 9.6 0.00 0.00 0.00 47 1020.3
20260503191538 65 53 3.5 7.0 0.00 0.00 0.00 53 1020.6
20260503190037 65 153 7.0 10.4 0.00 0.00 0.00 49 1020.7
20260503184540 64 198 6.1 11.3 0.00 0.00 0.00 49 1020.9
20260503183042 64 159 4.3 8.7 0.00 0.00 0.00 51 1021.0
20260503181530 63 182 1.7 6.1 0.00 0.00 0.00 53 1021.1
20260503180036 64 294 1.7 7.8 0.00 0.00 0.00 51 1021.4